TimeEST,TemperatureF,Dew PointF,Humidity,Sea Level PressureIn,VisibilityMPH,Wind Direction,Wind SpeedMPH,Gust SpeedMPH,PrecipitationIn,Events,Conditions,WindDirDegrees,DateUTC
12:51 AM,30.0,24.1,79,29.75,-9999.0,SSE,3.5,-,N/A,,Unknown,150,2013-02-14 05:51:00
1:51 AM,30.0,24.1,79,29.74,-9999.0,Calm,Calm,-,N/A,,Unknown,0,2013-02-14 06:51:00
2:51 AM,30.0,25.0,82,29.74,-9999.0,SSE,3.5,-,N/A,,Unknown,160,2013-02-14 07:51:00
3:51 AM,30.9,25.0,79,29.73,-9999.0,SSE,4.6,-,N/A,,Unknown,160,2013-02-14 08:51:00
4:51 AM,30.9,25.0,79,29.73,-9999.0,Calm,Calm,-,N/A,,Unknown,0,2013-02-14 09:51:00
5:51 AM,30.9,25.0,79,29.73,-9999.0,Calm,Calm,-,N/A,,Unknown,0,2013-02-14 10:51:00
6:51 AM,30.0,25.0,82,29.73,-9999.0,Calm,Calm,-,N/A,,Unknown,0,2013-02-14 11:51:00
7:51 AM,30.0,25.0,82,29.73,-9999.0,SSE,4.6,-,N/A,,Unknown,150,2013-02-14 12:51:00
8:51 AM,32.0,26.1,79,29.74,-9999.0,SSE,3.5,-,N/A,,Unknown,160,2013-02-14 13:51:00
9:51 AM,33.1,27.0,78,29.74,-9999.0,Variable,4.6,-,N/A,,Unknown,0,2013-02-14 14:51:00
10:51 AM,34.0,28.9,82,29.73,-9999.0,Variable,3.5,-,N/A,,Unknown,0,2013-02-14 15:51:00
11:51 AM,35.1,30.9,85,29.71,-9999.0,SSE,5.8,-,N/A,,Unknown,160,2013-02-14 16:51:00
12:51 PM,33.1,30.9,92,29.68,-9999.0,SSE,4.6,-,0.02,,Unknown,150,2013-02-14 17:51:00
1:51 PM,34.0,30.9,89,29.64,-9999.0,SE,10.4,-,0.04,,Unknown,140,2013-02-14 18:51:00
2:51 PM,35.1,30.9,85,29.64,-9999.0,SSE,8.1,-,N/A,,Unknown,160,2013-02-14 19:51:00
3:51 PM,36.0,30.9,82,29.63,-9999.0,South,5.8,-,N/A,,Unknown,170,2013-02-14 20:51:00
4:51 PM,36.0,32.0,86,29.63,-9999.0,Variable,5.8,-,N/A,,Unknown,0,2013-02-14 21:51:00
5:51 PM,36.0,30.9,82,29.63,-9999.0,Variable,4.6,-,N/A,,Unknown,0,2013-02-14 22:51:00
6:51 PM,36.0,30.9,82,29.65,-9999.0,Calm,Calm,-,N/A,,Unknown,0,2013-02-14 23:51:00
7:51 PM,36.0,32.0,86,29.65,-9999.0,SW,8.1,-,N/A,,Unknown,220,2013-02-15 00:51:00
8:51 PM,35.1,30.9,85,29.63,-9999.0,SW,8.1,17.3,0.02,,Unknown,230,2013-02-15 01:51:00
9:51 PM,34.0,30.9,89,29.64,-9999.0,WSW,8.1,19.6,N/A,,Unknown,240,2013-02-15 02:51:00
10:51 PM,33.1,30.9,92,29.65,-9999.0,West,9.2,-,0.04,,Unknown,270,2013-02-15 03:51:00
11:51 PM,30.0,28.0,92,29.71,-9999.0,NW,18.4,28.8,0.03,,Unknown,310,2013-02-15 04:51:00